Location: Newark
(44.5425°N, 10.7801°E)
Time: 13:28:47
(UTC+00:00)

N. Korean satellite - Visible Passes

Search period start: 23 January 2020 00:00
Search period end: 02 February 2020 00:00
Orbit: 454 x 507 km, 97.2° (Epoch: 22 January)

Date Brightness Start Highest point End Pass type
(mag) Time Alt. Az. Time Alt. Az. Time Alt. Az.
23 Jan 6.8 05:02:09 10° NNE 05:05:42 68° E 05:09:16 10° S visible
23 Jan 9.7 17:13:49 10° SW 17:16:01 16° W 17:18:12 10° NW visible
24 Jan 8.4 04:36:55 10° NNE 04:40:08 31° E 04:43:23 10° SSE visible
24 Jan 8.0 06:10:52 10° NNW 06:13:19 18° WNW 06:15:47 10° WSW visible
24 Jan 8.6 16:47:15 10° SSW 16:50:21 32° W 16:53:29 10° NNW visible
25 Jan 9.6 04:12:11 10° NE 04:14:30 16° E 04:16:49 10° SE visible
25 Jan 7.2 05:44:44 10° N 05:47:59 33° WNW 05:51:16 10° SW visible
26 Jan 6.4 05:19:00 10° N 05:22:34 72° WNW 05:26:10 10° SSW visible
27 Jan 7.4 04:53:32 10° NNE 04:57:04 52° E 05:00:37 10° S visible
27 Jan 9.6 17:04:42 10° SW 17:07:18 20° W 17:09:55 10° NW visible
28 Jan 8.9 04:28:25 10° NE 04:31:28 25° E 04:34:32 10° SSE visible
28 Jan 7.8 06:01:55 10° NNW 06:04:45 22° WNW 06:07:36 10° WSW visible
29 Jan 9.9 04:04:00 10° ENE 04:05:48 13° E 04:07:36 10° ESE visible
29 Jan 6.9 05:35:58 10° N 05:39:23 43° WNW 05:42:51 10° SW visible
30 Jan 6.5 05:10:19 10° NNE 05:13:56 89° ESE 05:17:36 10° SSW visible
30 Jan 10.0 17:22:40 10° WSW 17:24:16 13° W 17:25:53 10° WNW visible
31 Jan 7.9 04:44:57 10° NNE 04:48:25 41° E 04:51:53 10° S visible
31 Jan 9.2 16:55:41 10° SSW 16:58:34 25° W 17:01:30 10° NW visible
01 Feb 9.3 04:19:58 10° NE 04:22:47 21° E 04:25:36 10° SE visible
01 Feb 7.5 05:53:02 10° N 05:56:09 27° WNW 05:59:18 10° SW visible
